{"data":{"norad_id":66431,"intl_designator":"2025-259K","name":"STARLINK-35439","alt_names":[],"object_type":"PAYLOAD","status":"ACTIVE","operator":null,"country":"US","launch_date":"2025-11-11","launch_site_code":"AFETR","launch_vehicle":null,"mission":null,"orbit_class":"UNKNOWN","rcs_meters":null,"size_class":null,"mass_kg":null,"dimensions":null,"purposes":["comms"],"wikipedia_slug":null,"has_3d_model":false,"image_url":null,"decayed_at":null,"tle_current":{"epoch":"2026-09-20T16:05:35.109600Z","epoch_age_seconds":78699,"freshness":"FRESH","line1":"1 66431U 25259K   26263.67054525  .00017137  00000+0  63050-3 0  9991","line2":"2 66431  43.0017 252.9755 0001721 270.0663  89.9991 15.27596274 49317","mean_motion":15.27596274,"eccentricity":0.0001721,"inclination_deg":43.0017,"raan_deg":252.9755,"arg_perigee_deg":270.0663,"mean_anomaly_deg":89.9991,"bstar":0.0006305,"rev_number":4931,"period_min":94.265744458081,"perigee_km":481.819564521,"apogee_km":484.18116800246,"semimajor_km":6861.1373662617,"source":"CELESTRAK","updated_at":"2026-09-21T09:00:35.907753Z"}}}